Weather History for Salina, KS

Change the Weather History Date:

Saturday, May 12, 2012

  Actual Average Record
Temperature  
Mean Temperature 61 °F 64 °F  
Max Temperature 71 °F 75 °F 95 °F (1956)
Min Temperature 50 °F 53 °F 34 °F (1952)
Degree Days  
Heating Degree Days 4 4  
Month to date heating degree days 19 58  
Since 1 July heating degree days 4063 4826  
Cooling Degree Days 0 3  
Month to date cooling degree days 67 22  
Year to date cooling degree days 142 47  
Growing Degree Days 10 (Base 50)    
Moisture  
Dew Point 46 °F    
Average Humidity 64    
Maximum Humidity 83    
Minimum Humidity 44    
Precipitation  
Precipitation 0.04 in 0.14 in 1.13 in (1995)
Month to date precipitation 0.19 1.60  
Year to date precipitation 7.16 8.84  
Sea Level Pressure  
Sea Level Pressure 30.26 in    
Wind  
Wind Speed 8 mph (NNE)    
Max Wind Speed 17 mph    
Max Gust Speed 22 mph    
Visibility 10 miles    
Events Rain    
T = Trace of Precipitation, MM = Missing Value Source: NWS Daily Summary

Daily Weather History Graph

Daily Weather History Graph

Search for Another Location

Airport:

Trip Planner

Search our weather history database for the weather conditions in past years. The results will help you decide how hot, cold, wet, or windy it might be!

Date:

Astronomy

May. 12, 2012 Rise Set
Actual Time 6:20 AM CDT 8:33 PM CDT
Civil Twilight 5:50 AM CDT 9:03 PM CDT
Nautical Twilight 5:14 AM CDT 9:40 PM CDT
Astronomical Twilight 4:34 AM CDT 10:20 PM CDT
Moon 1:49 AM CDT (5/12) 12:59 PM CDT (5/12)
Length of Visible Light 15h 12m
Length of Day
14h 13m
Waning Gibbous, 52% of the Moon is Illuminated
May 12
Waning Gibbous
May 12
Last Quarter
May 20
New
May 28
First Quarter
Jun 4
Full

Hourly Weather History & Observations

Time (CDT) Temp. Dew Point Humidity Pressure Visibility Wind Dir Wind Speed Gust Speed Precip Events Conditions
12:53 AM 57.9 °F 43.0 °F 58% 30.21 in 10.0 mi North 11.5 mph - N/A   Mostly Cloudy
1:53 AM 55.9 °F 44.1 °F 64% 30.22 in 10.0 mi NE 10.4 mph 21.9 mph 0.00 in Rain Light Rain
2:53 AM 54.0 °F 46.9 °F 77% 30.22 in 10.0 mi NNE 12.7 mph 19.6 mph 0.02 in Rain Light Rain
3:53 AM 52.0 °F 46.9 °F 83% 30.22 in 10.0 mi North 12.7 mph - 0.01 in Rain Light Rain
4:53 AM 51.1 °F 46.0 °F 83% 30.23 in 10.0 mi NNE 10.4 mph - 0.01 in Rain Light Rain
5:53 AM 50.0 °F 45.0 °F 83% 30.26 in 10.0 mi North 8.1 mph - 0.00 in Rain Light Rain
6:53 AM 50.0 °F 44.1 °F 80% 30.28 in 10.0 mi NNE 10.4 mph - 0.00 in   Mostly Cloudy
7:53 AM 51.1 °F 44.1 °F 77% 30.30 in 10.0 mi North 9.2 mph - N/A   Overcast
8:53 AM 52.0 °F 44.1 °F 74% 30.31 in 10.0 mi North 10.4 mph - N/A   Overcast
9:53 AM 55.0 °F 45.0 °F 69% 30.31 in 10.0 mi North 13.8 mph - N/A   Overcast
10:53 AM 57.0 °F 43.0 °F 59% 30.31 in 10.0 mi North 12.7 mph - N/A   Overcast
11:53 AM 59.0 °F 43.0 °F 55% 30.32 in 10.0 mi North 12.7 mph - N/A   Overcast
12:53 PM 61.0 °F 44.1 °F 54% 30.30 in 10.0 mi NNE 8.1 mph - N/A   Mostly Cloudy
1:53 PM 64.9 °F 46.0 °F 50% 30.28 in 10.0 mi North 10.4 mph - N/A   Scattered Clouds
2:53 PM 66.9 °F 46.9 °F 49% 30.27 in 10.0 mi NNE 6.9 mph - N/A   Clear
3:53 PM 69.1 °F 46.9 °F 45% 30.25 in 10.0 mi NNE 10.4 mph - N/A   Clear
4:53 PM 70.0 °F 48.0 °F 46% 30.24 in 10.0 mi NNE 9.2 mph - N/A   Scattered Clouds
5:53 PM 70.0 °F 46.9 °F 44% 30.24 in 10.0 mi NNW 8.1 mph - N/A   Scattered Clouds
6:53 PM 66.9 °F 46.0 °F 47% 30.24 in 10.0 mi North 8.1 mph - N/A   Clear
7:53 PM 66.0 °F 48.0 °F 52% 30.24 in 10.0 mi ENE 6.9 mph - N/A   Clear
8:53 PM 64.9 °F 48.0 °F 54% 30.25 in 10.0 mi East 3.5 mph - N/A   Overcast
9:53 PM 63.0 °F 48.0 °F 58% 30.27 in 10.0 mi East 4.6 mph - N/A   Overcast
10:53 PM 59.0 °F 48.9 °F 69% 30.28 in 10.0 mi SE 3.5 mph - N/A   Clear
11:53 PM 59.0 °F 50.0 °F 72% 30.28 in 10.0 mi Calm Calm - N/A   Overcast